Home   Weather   Cincinnati   Past weeks

Flag for USA Past Weather in Cincinnati, Ohio, USA — Yesterday and Last 2 Weeks

Now
57 °F

Partly sunny.


Feels Like: 54 °F
Forecast: 47 / 61 °F
Wind: 14 mph from West

Location: Cincinnati Municipal Airport Lunken Field

Current Time: Jan 17, 2017 at 4:29:19 pm

Latest Report: Jan 17, 2017 at 3:53 pm


Visibility: 10 mi

Pressure: 29.93 "Hg

Humidity: 72%

Dew Point: 48 °F

Location of CincinnatiLocation

Past Weather in Cincinnati — Graph

°F

Cincinnati Temperature Yesterday

Maximum temperature yesterday: 50 °F (at 3:53 pm)
Minimum temperature yesterday: 38 °F (at 12:53 am)
Average temperature yesterday: 44 °F

High & Low Weather Summary for the Past Weeks

 TemperatureHumidityPressure
High67 °F (Jan 12, 10:53 am)100% (Jan 2, 6:36 pm)30.81 "Hg (Jan 2, 6:36 pm)
Low6 °F (Jan 7, 7:53 am)46% (Jan 8, 3:53 pm)29.63 "Hg (Jan 3, 4:00 pm)
Average36 °F82%30.21 "Hg
* Reported Jan 2 2:12 pm — Jan 17 2:53 pm, Cincinnati, Weather by CustomWeather, © 2017

Note: Actual official high and low records may vary slightly from our data, if they occured in-between our weather recording intervals... More about our weather records

Advertising

Cincinnati Weather History for the Previous 24 Hours

Scroll right to see more
 ConditionsComfort  
Time TempWeatherWind HumidityBarometerVisibility
2:53 pm
Tue, Jan 17
59 °FMostly cloudy.14 mph72%29.91 "Hg10 mi
1:53 pm60 °FPartly sunny.14 mph75%29.90 "Hg10 mi
1:19 pm61 °FPartly sunny.15 mph75%29.90 "Hg10 mi
12:53 pm61 °FPartly sunny.13 mph78%29.90 "Hg10 mi
12:23 pm61 °FPartly sunny.14 mph78%29.90 "Hg10 mi
11:53 am65 °FPartly sunny.13 mph73%29.90 "Hg10 mi
10:53 am62 °FPartly sunny.14 mph83%29.91 "Hg10 mi
9:53 am61 °FMostly cloudy.15 mph87%29.91 "Hg10 mi
8:53 am60 °FBroken clouds.12 mph90%29.91 "Hg10 mi
7:53 am59 °FMostly cloudy.12 mph93%29.90 "Hg10 mi
6:53 am59 °FOvercast.12 mph93%29.90 "Hg10 mi
5:53 am58 °FMostly cloudy.14 mph97%29.90 "Hg10 mi
5:19 am58 °FLight rain. Mostly cloudy.15 mph97%29.92 "Hg10 mi
5:03 am58 °FRain. Fog.16 mph97%29.93 "Hg4 mi
3:53 am57 °FOvercast.16 mph96%29.95 "Hg10 mi
3:10 am57 °FMostly cloudy.13 mph96%29.99 "Hg10 mi
2:53 am57 °FRain. Fog.10 mph96%29.99 "Hg4 mi
1:53 am55 °FPassing clouds.10 mph96%29.98 "Hg10 mi
1:19 am51 °FLight rain. Fog.7 mph100%30.01 "Hg5 mi
12:53 am48 °FLight rain. Fog.No wind100%30.02 "Hg3 mi
12:27 am48 °FRain. Fog.No wind100%30.04 "Hg2 mi
11:53 pm
Mon, Jan 16
47 °FRain. Fog.No wind100%30.06 "Hg3 mi
11:24 pm47 °FFog.No wind100%30.06 "Hg3 mi
11:04 pm47 °FFog.No wind100%30.06 "Hg2 mi
10:53 pm47 °FFog.No wind100%30.07 "Hg2 mi
9:53 pm47 °FFog.5 mph100%30.10 "Hg1 mi
8:53 pm48 °FFog.No wind100%30.13 "Hg3 mi
8:11 pm48 °FLight rain. Fog.No wind100%30.15 "Hg2 mi
7:53 pm48 °FLight rain. Fog.No wind100%30.16 "Hg3 mi
6:53 pm48 °FLight rain. Fog.No wind100%30.16 "Hg5 mi
5:53 pm50 °FLight rain. Fog.No wind96%30.18 "Hg6 mi
4:53 pm50 °FFog.No wind96%30.17 "Hg6 mi
Weather by CustomWeather, © 2017

See weather overviewHow to use our weather pages